TimeCST,TemperatureF,Dew PointF,Humidity,Sea Level PressureIn,VisibilityMPH,Wind Direction,Wind SpeedMPH,Gust SpeedMPH,PrecipitationIn,Events,Conditions,WindDirDegrees,DateUTC
12:53 AM,39.9,32.0,73,30.12,10.0,NW,5.8,-,N/A,,Clear,310,2013-12-17 06:53:00
1:53 AM,37.0,30.0,76,30.12,10.0,Calm,Calm,-,N/A,,Clear,0,2013-12-17 07:53:00
2:53 AM,35.1,30.0,82,30.13,10.0,Calm,Calm,-,N/A,,Clear,0,2013-12-17 08:53:00
3:53 AM,33.1,28.0,82,30.14,10.0,Calm,Calm,-,N/A,,Clear,0,2013-12-17 09:53:00
4:53 AM,33.1,28.0,82,30.16,10.0,North,3.5,-,N/A,,Clear,10,2013-12-17 10:53:00
5:53 AM,32.0,27.0,82,30.18,10.0,North,5.8,-,N/A,,Clear,360,2013-12-17 11:53:00
6:53 AM,34.0,28.0,79,30.19,10.0,NNE,6.9,-,N/A,,Clear,20,2013-12-17 12:53:00
7:53 AM,33.1,28.0,82,30.19,10.0,SSW,3.5,-,N/A,,Clear,200,2013-12-17 13:53:00
8:53 AM,37.9,30.0,73,30.20,10.0,West,3.5,-,N/A,,Clear,280,2013-12-17 14:53:00
9:53 AM,39.9,30.0,68,30.23,10.0,NNW,8.1,-,N/A,,Partly Cloudy,340,2013-12-17 15:53:00
10:53 AM,44.1,30.0,58,30.23,10.0,Calm,Calm,-,N/A,,Clear,0,2013-12-17 16:53:00
11:53 AM,48.0,30.9,52,30.22,10.0,Variable,6.9,-,N/A,,Clear,0,2013-12-17 17:53:00
12:53 PM,51.1,24.1,35,30.20,10.0,NW,16.1,-,0.00,,Clear,320,2013-12-17 18:53:00
1:53 PM,54.0,26.1,34,30.19,10.0,NW,12.7,-,N/A,,Clear,310,2013-12-17 19:53:00
2:53 PM,54.0,26.1,34,30.19,10.0,West,6.9,-,N/A,,Clear,280,2013-12-17 20:53:00
3:53 PM,54.0,25.0,33,30.21,10.0,West,9.2,-,N/A,,Clear,280,2013-12-17 21:53:00
4:53 PM,50.0,25.0,38,30.22,10.0,WNW,5.8,-,N/A,,Clear,290,2013-12-17 22:53:00
5:53 PM,45.0,27.0,49,30.24,10.0,Calm,Calm,-,N/A,,Clear,0,2013-12-17 23:53:00
6:53 PM,39.9,27.0,60,30.27,10.0,Calm,Calm,-,N/A,,Clear,0,2013-12-18 00:53:00
7:53 PM,39.0,27.0,62,30.29,10.0,NNE,3.5,-,N/A,,Clear,20,2013-12-18 01:53:00
8:53 PM,36.0,28.0,73,30.31,10.0,Calm,Calm,-,N/A,,Clear,0,2013-12-18 02:53:00
9:53 PM,32.0,26.1,79,30.32,10.0,West,3.5,-,N/A,,Clear,260,2013-12-18 03:53:00
10:53 PM,32.0,25.0,75,30.33,10.0,Calm,Calm,-,N/A,,Clear,0,2013-12-18 04:53:00
11:53 PM,30.9,25.0,79,30.33,10.0,Calm,Calm,-,N/A,,Clear,0,2013-12-18 05:53:00